Total_Precipitation_Accumulation
1.42 1.47 2.25 3.49 4.03 3.32 2.75 2.12 1.37 1.36 1.15 0.79 0.64 0.72 1.17 1.78 2.15 2.50 2.52 2.11 1.39 1.16 1.28 1.98 2.71 2.54 2.42 2.52 2.64 2.67 2.66 2.59 2.51 2.37 2.16 2.01 1.79 1.69 1.68 1.64 1.53 1.38 1.35 1.31 1.47 1.78 1.95 2.07 2.01
1.27 2.07 3.09 4.15 3.73 2.93 2.78 2.09 1.56 1.17 0.76 0.55 0.53 0.63 0.91 1.03 0.97 1.51 2.61 2.39 1.38 1.12 1.20 1.52 2.53 2.63 2.54 2.61 2.64 2.50 2.40 2.27 2.11 2.08 2.04 1.90 1.82 1.71 1.63 1.61 1.56 1.40 1.33 1.32 1.45 1.77 1.83 1.86 1.88
1.64 2.61 3.62 3.75 2.83 2.61 2.62 1.90 1.37 0.73 0.48 0.53 0.59 0.59 0.82 1.12 1.20 1.79 2.38 1.83 1.27 1.09 1.19 1.65 2.46 2.54 2.50 2.46 2.46 2.49 2.32 2.15 1.91 1.80 1.86 1.82 1.77 1.61 1.58 1.59 1.49 1.37 1.34 1.26 1.33 1.58 1.72 1.89 1.83
2.00 2.86 3.16 2.78 2.35 1.87 1.56 1.43 0.99 0.79 0.61 0.40 0.50 0.67 0.66 1.02 1.31 1.62 1.54 1.26 1.17 1.16 1.22 1.62 2.22 2.35 2.40 2.34 2.28 2.20 2.06 1.91 1.82 1.71 1.78 1.82 1.78 1.62 1.54 1.47 1.45 1.36 1.31 1.27 1.27 1.42 1.67 1.94 1.87
2.32 2.90 2.79 2.26 2.17 1.63 1.22 1.07 0.84 0.94 0.85 0.53 0.46 0.71 0.89 1.19 1.29 1.37 1.33 1.17 1.20 1.26 1.20 1.49 2.04 2.13 2.24 2.17 1.98 1.96 1.94 1.82 1.73 1.67 1.62 1.63 1.68 1.64 1.55 1.57 1.54 1.40 1.35 1.39 1.39 1.47 1.53 1.69 1.77
2.50 2.60 2.51 2.27 2.29 1.87 1.53 1.14 0.89 0.96 0.77 0.53 0.51 0.76 1.08 1.33 1.45 1.38 1.27 1.33 1.31 1.30 1.19 1.30 1.78 1.98 2.05 1.99 1.93 1.91 1.87 1.78 1.64 1.53 1.47 1.49 1.53 1.47 1.40 1.44 1.45 1.42 1.41 1.47 1.42 1.44 1.37 1.41 1.56
2.74 2.61 2.22 1.88 2.14 2.39 1.81 1.14 1.04 1.05 0.95 0.70 0.52 0.86 1.17 1.36 1.43 1.22 1.18 1.46 1.59 1.55 1.39 1.28 1.40 1.60 1.76 1.94 1.97 2.05 2.03 1.97 1.81 1.59 1.49 1.49 1.42 1.28 1.23 1.34 1.44 1.50 1.53 1.62 1.58 1.55 1.44 1.44 1.59
2.19 2.29 1.89 1.89 2.20 2.48 1.74 1.12 0.91 0.91 0.93 0.61 0.57 0.95 1.31 1.26 1.27 1.24 1.19 1.36 1.44 1.49 1.44 1.34 1.37 1.44 1.53 1.69 1.95 2.23 2.34 2.42 2.14 1.76 1.61 1.46 1.31 1.23 1.28 1.34 1.48 1.64 1.77 1.89 1.88 1.78 1.64 1.65 1.68
2.09 2.47 2.30 2.36 2.31 1.93 1.30 1.19 0.90 0.71 0.77 0.72 0.60 0.65 0.86 0.82 0.88 1.08 1.17 1.18 1.13 1.09 1.16 1.21 1.27 1.39 1.45 1.52 1.62 2.04 2.29 2.46 2.09 1.62 1.61 1.45 1.24 1.19 1.30 1.36 1.78 1.90 1.97 2.14 2.21 2.07 1.90 1.74 1.67
2.20 2.36 2.13 1.77 1.52 1.37 1.23 1.11 0.87 0.92 1.07 0.98 0.82 0.72 0.74 0.79 0.90 0.99 0.99 1.00 0.95 0.92 0.87 0.88 0.88 0.97 1.16 1.27 1.56 1.89 1.95 2.08 1.75 1.51 1.51 1.45 1.49 1.44 1.19 1.32 1.80 2.03 2.10 1.97 1.99 2.10 1.87 1.54 1.30
1.69 1.80 1.41 1.14 0.90 0.92 0.97 0.89 0.71 0.86 1.11 0.89 0.78 0.77 0.79 0.86 0.87 0.92 0.91 0.78 0.74 0.70 0.70 0.68 0.71 0.75 0.92 1.26 1.57 1.83 1.95 2.03 2.01 1.93 1.70 1.66 1.55 1.35 1.20 1.21 1.31 1.44 1.52 1.44 1.55 1.63 1.48 1.39 1.24
1.52 1.31 1.08 1.02 0.79 0.82 0.80 0.74 0.80 0.74 0.73 0.59 0.54 0.61 0.79 0.91 0.87 0.80 0.83 0.79 0.72 0.72 0.73 0.66 0.58 0.65 0.80 1.00 1.24 1.58 1.79 1.86 1.83 1.74 1.45 1.49 1.52 1.35 1.31 1.41 1.48 1.46 1.46 1.62 1.66 1.67 1.60 1.45 1.25
1.45 1.23 0.95 0.75 0.71 0.72 0.74 0.75 0.76 0.68 0.55 0.50 0.49 0.59 0.79 0.91 0.90 0.78 0.71 0.68 0.72 0.82 0.91 0.86 0.70 0.69 0.78 0.90 0.96 1.15 1.38 1.45 1.69 1.74 1.35 1.23 1.27 1.37 1.39 1.29 1.49 1.58 1.62 1.67 1.74 1.68 1.60 1.59 1.41
1.28 1.05 0.88 0.77 0.74 0.69 0.76 0.74 0.72 0.79 0.60 0.55 0.58 0.68 0.79 0.87 0.88 0.75 0.65 0.58 0.59 0.67 0.79 0.84 0.84 0.87 0.88 0.89 0.89 0.89 0.93 1.10 1.24 1.26 1.09 1.04 1.05 1.21 1.42 1.33 1.34 1.45 1.65 1.77 1.78 1.72 1.78 1.77 1.55
0.89 0.96 1.03 0.95 0.89 0.81 0.85 1.05 0.79 0.69 0.60 0.58 0.61 0.69 0.68 0.69 0.70 0.62 0.56 0.46 0.47 0.55 0.63 0.72 0.79 0.85 0.92 1.03 1.04 0.91 0.88 1.03 1.07 1.01 0.99 1.01 0.99 1.14 1.40 1.34 1.25 1.26 1.42 1.61 1.85 1.91 1.91 1.71 1.62
1.08 1.12 1.44 1.11 1.01 0.93 1.04 1.19 0.71 0.64 0.62 0.57 0.59 0.71 0.68 0.56 0.50 0.48 0.51 0.49 0.46 0.54 0.57 0.63 0.62 0.72 0.85 1.03 1.13 1.10 1.08 1.13 1.08 0.94 0.89 0.88 0.87 0.95 1.22 1.30 1.22 1.21 1.39 1.64 1.91 2.10 2.14 1.94 1.90
1.43 1.37 1.28 1.11 0.97 0.87 0.83 0.86 0.63 0.56 0.54 0.52 0.53 0.63 0.63 0.50 0.44 0.40 0.40 0.46 0.54 0.58 0.57 0.58 0.60 0.63 0.70 0.86 1.01 1.01 1.02 1.07 1.04 0.98 0.94 0.87 0.84 0.89 1.15 1.38 1.41 1.38 1.54 1.66 1.67 1.92 2.09 2.21 2.12
1.10 0.97 0.96 0.90 0.77 0.73 0.68 0.60 0.55 0.48 0.46 0.50 0.51 0.55 0.53 0.40 0.34 0.33 0.36 0.46 0.59 0.66 0.62 0.63 0.62 0.60 0.61 0.67 0.80 0.92 0.90 0.93 0.99 0.95 1.00 1.04 1.07 1.09 1.31 1.57 1.60 1.67 1.74 1.82 2.02 2.31 2.34 2.26 2.28
0.82 0.79 0.78 0.66 0.52 0.57 0.60 0.61 0.56 0.53 0.48 0.47 0.47 0.45 0.47 0.41 0.37 0.30 0.30 0.36 0.50 0.56 0.56 0.58 0.64 0.62 0.57 0.55 0.64 0.75 0.79 0.90 1.00 1.09 1.20 1.22 1.21 1.28 1.49 1.68 1.93 2.06 1.93 1.96 2.21 2.51 2.63 2.43 2.26
0.86 0.87 0.82 0.72 0.56 0.55 0.60 0.64 0.56 0.51 0.47 0.40 0.36 0.34 0.39 0.36 0.34 0.31 0.32 0.35 0.38 0.43 0.45 0.50 0.54 0.52 0.47 0.44 0.52 0.66 0.79 0.91 1.09 1.29 1.53 1.47 1.35 1.38 1.40 1.66 1.85 1.94 2.04 2.07 2.18 2.48 2.83 2.60 2.30
0.78 0.73 0.66 0.75 0.68 0.66 0.73 0.80 0.66 0.57 0.51 0.42 0.33 0.33 0.37 0.34 0.29 0.29 0.32 0.36 0.33 0.34 0.41 0.47 0.50 0.51 0.49 0.55 0.73 1.05 1.36 1.52 1.59 1.64 1.88 1.93 1.79 1.73 1.68 1.72 1.82 1.91 2.09 2.22 2.25 2.32 2.67 2.74 2.50
0.83 0.59 0.51 0.65 0.87 0.85 0.73 0.90 0.63 0.56 0.61 0.47 0.38 0.34 0.34 0.35 0.32 0.30 0.32 0.37 0.31 0.34 0.41 0.48 0.51 0.59 0.61 0.74 1.06 1.51 1.87 2.04 2.02 2.08 2.16 2.27 2.21 2.04 2.04 2.03 2.11 2.04 2.03 2.10 2.08 2.08 2.34 2.68 2.74
0.78 0.64 0.65 0.72 0.80 0.76 0.53 0.62 0.55 0.55 0.63 0.50 0.44 0.43 0.42 0.37 0.35 0.34 0.36 0.41 0.41 0.43 0.49 0.56 0.66 0.82 0.98 1.10 1.28 1.61 1.79 1.87 2.01 2.15 2.43 2.63 2.71 2.66 2.62 2.52 2.34 2.12 2.04 2.08 2.11 2.12 2.25 2.39 2.55
0.60 0.74 0.87 0.87 0.87 0.83 0.43 0.43 0.48 0.49 0.47 0.47 0.44 0.47 0.45 0.39 0.34 0.35 0.43 0.48 0.49 0.59 0.67 0.70 0.87 1.03 1.08 1.19 1.31 1.44 1.54 1.68 1.90 2.09 2.35 2.54 2.59 2.65 2.60 2.41 2.12 1.95 1.88 1.95 2.08 2.08 2.15 2.17 2.26
0.58 0.84 1.17 1.28 1.19 0.82 0.36 0.37 0.44 0.35 0.31 0.35 0.37 0.35 0.35 0.37 0.37 0.39 0.42 0.52 0.56 0.64 0.78 0.85 0.95 1.10 1.15 1.25 1.35 1.36 1.43 1.55 1.73 1.83 1.89 1.93 1.93 2.01 2.04 2.01 1.97 1.88 1.76 1.81 2.01 2.10 2.13 2.12 2.11
0.49 0.60 0.97 1.17 0.98 0.69 0.41 0.47 0.43 0.28 0.23 0.21 0.25 0.29 0.33 0.42 0.47 0.47 0.48 0.61 0.69 0.78 0.89 1.03 1.09 1.16 1.21 1.29 1.38 1.35 1.45 1.58 1.67 1.63 1.59 1.65 1.69 1.76 1.81 1.85 1.88 1.81 1.74 1.73 1.83 1.95 2.06 2.07 2.01
0.47 0.48 0.55 0.69 0.56 0.58 0.47 0.41 0.32 0.20 0.19 0.19 0.24 0.34 0.44 0.51 0.57 0.60 0.62 0.70 0.79 0.87 0.96 1.07 1.20 1.27 1.34 1.33 1.39 1.52 1.58 1.60 1.58 1.45 1.42 1.48 1.42 1.39 1.50 1.61 1.71 1.66 1.62 1.61 1.73 1.88 1.90 1.99 2.06
0.38 0.47 0.58 0.69 0.74 0.70 0.47 0.42 0.40 0.27 0.26 0.29 0.34 0.43 0.58 0.68 0.71 0.75 0.82 0.88 0.93 0.96 1.06 1.16 1.27 1.39 1.38 1.36 1.46 1.63 1.60 1.38 1.24 1.14 1.17 1.20 1.25 1.29 1.31 1.27 1.29 1.28 1.32 1.31 1.40 1.59 1.68 1.71 1.79
0.37 0.38 0.48 0.58 0.58 0.79 0.90 0.86 0.68 0.63 0.51 0.56 0.60 0.69 0.86 0.92 0.94 0.91 0.97 1.04 1.03 1.04 1.13 1.18 1.27 1.43 1.44 1.34 1.45 1.47 1.28 1.02 0.90 0.92 0.93 0.94 0.95 0.99 1.02 0.94 0.94 1.03 1.05 0.99 1.08 1.20 1.28 1.38 1.46
0.29 0.29 0.34 0.57 0.59 0.63 0.97 1.00 0.83 0.86 0.84 0.94 1.03 1.18 1.15 1.12 1.15 1.06 1.00 1.02 0.95 0.93 1.04 1.13 1.26 1.33 1.24 1.20 1.20 1.04 0.85 0.74 0.71 0.69 0.68 0.68 0.73 0.72 0.74 0.70 0.69 0.78 0.90 0.92 0.99 1.06 1.05 1.14 1.26